Satellite-Ground Cal/Val Region Overpasses Predictions

Prediction of Satellite NPP Overpassing Cal/Val Region: PacNW

Region Location: (Latitude: 10.00, Longitude: 139.50) to (Latitude: 22.70, Longitude: 165.60).

Table of predicted overpasses for the next 14.0 days since TLE Epoch: 7/16/2022
Interval Starting Time Starting Location Ending Time Ending Location
1 07/16/2022 14:39:50 ( 22.65, 165.04) 07/16/2022 14:43:25 ( 10.03, 162.03)
2 07/16/2022 16:21:20 ( 22.65, 139.66) 07/16/2022 16:21:31 ( 22.01, 139.50)
3 07/17/2022 03:30:24 ( 10.00, 147.19) 07/17/2022 03:34:00 ( 22.68, 144.18)
4 07/17/2022 16:02:18 ( 22.68, 144.42) 07/17/2022 16:05:54 ( 10.00, 141.41)
5 07/18/2022 03:11:24 ( 10.03, 151.94) 07/18/2022 03:14:59 ( 22.65, 148.94)
6 07/18/2022 15:43:18 ( 22.65, 149.17) 07/18/2022 15:46:53 ( 10.03, 146.17)
7 07/19/2022 02:52:23 ( 10.00, 156.70) 07/19/2022 02:55:59 ( 22.68, 153.68)
8 07/19/2022 15:24:16 ( 22.68, 153.93) 07/19/2022 15:27:52 ( 10.00, 150.92)
9 07/20/2022 02:33:22 ( 10.03, 161.45) 07/20/2022 02:36:57 ( 22.65, 158.45)
10 07/20/2022 15:05:16 ( 22.65, 158.68) 07/20/2022 15:08:51 ( 10.03, 155.68)
11 07/21/2022 02:15:07 ( 12.71, 165.59) 07/21/2022 02:17:57 ( 22.68, 163.19)
12 07/21/2022 03:55:51 ( 10.00, 140.83) 07/21/2022 03:57:28 ( 15.70, 139.51)
13 07/21/2022 14:46:14 ( 22.68, 163.44) 07/21/2022 14:49:50 ( 10.00, 160.42)
14 07/22/2022 03:36:50 ( 10.04, 145.58) 07/22/2022 03:40:25 ( 22.66, 142.58)
15 07/22/2022 14:30:19 ( 11.79, 165.59) 07/22/2022 14:30:49 ( 10.03, 165.19)
16 07/22/2022 16:08:44 ( 22.65, 142.81) 07/22/2022 16:12:19 ( 10.03, 139.81)
17 07/23/2022 03:17:49 ( 10.01, 150.34) 07/23/2022 03:21:25 ( 22.69, 147.33)
18 07/23/2022 15:49:42 ( 22.68, 147.57) 07/23/2022 15:53:17 ( 10.06, 144.57)
19 07/24/2022 02:58:48 ( 10.04, 155.09) 07/24/2022 03:02:23 ( 22.66, 152.09)
20 07/24/2022 15:30:42 ( 22.64, 152.32) 07/24/2022 15:34:17 ( 10.02, 149.32)
21 07/25/2022 02:39:47 ( 10.02, 159.85) 07/25/2022 02:43:23 ( 22.70, 156.83)
22 07/25/2022 15:11:40 ( 22.67, 157.08) 07/25/2022 15:15:15 ( 10.05, 154.08)
23 07/26/2022 02:20:46 ( 10.05, 164.60) 07/26/2022 02:24:21 ( 22.67, 161.59)
24 07/26/2022 14:52:39 ( 22.70, 161.84) 07/26/2022 14:56:15 ( 10.02, 158.83)
25 07/27/2022 03:43:15 ( 10.03, 143.98) 07/27/2022 03:46:50 ( 22.65, 140.98)
26 07/27/2022 14:34:48 ( 18.61, 165.59) 07/27/2022 14:37:14 ( 10.04, 163.59)
27 07/27/2022 16:15:09 ( 22.66, 141.21) 07/27/2022 16:17:09 ( 15.62, 139.50)
28 07/28/2022 03:24:13 ( 10.00, 148.74) 07/28/2022 03:27:49 ( 22.69, 145.72)
29 07/28/2022 15:56:07 ( 22.68, 145.97) 07/28/2022 15:59:43 ( 10.00, 142.96)
30 07/29/2022 03:05:13 ( 10.04, 153.49) 07/29/2022 03:08:48 ( 22.66, 150.49)
31 07/29/2022 15:37:07 ( 22.65, 150.72) 07/29/2022 15:40:42 ( 10.03, 147.72)
